Location: Ellierode
(51.6322°N, 9.8066°E)
Time: 23:03:50
(UTC+00:00)

Daily predictions for brighter satellites

Satellite Brightness Start Highest point End
(mag) Time Altitude Azimuth Time Altitude Azimuth Time Altitude Azimuth
NOSS 3-4 (A) 4.4 15:40:59 10° NW 15:47:47 69° SW 15:55:36 10° SSE
NOSS 3-4 (C) 4.4 15:41:09 10° NW 15:47:53 68° SW 15:55:36 10° SSE
NOSS 3-3 (C) 4.2 15:44:45 10° WSW 15:50:25 69° NW 15:57:10 10° NE
NOSS 3-3 (A) 4.2 15:45:08 10° WSW 15:50:46 68° NW 15:57:31 10° NE
Cosmos 2151 3.0 15:46:57 10° N 15:51:12 59° ENE 15:55:25 10° SSE
Cosmos 2082 4.2 15:46:14 10° S 15:51:27 42° ESE 15:56:44 10° NE
Lacrosse 4 Rocket 1.8 15:50:17 10° NNW 15:54:27 42° NE 15:58:33 10° ESE
Cosmos-2242 4.5 15:52:15 10° SE 15:55:13 18° E 15:58:10 10° NE
Cosmos 2058 Rocket 3.4 15:53:06 10° SSE 15:57:20 47° E 16:01:35 10° NNE
Cosmos 2279 Rocket 4.0 15:52:40 10° N 15:58:56 71° ENE 16:05:08 10° SSE
SL-08 RB Rocket 3.7 15:55:14 10° SSE 15:59:43 87° ENE 16:04:16 10° NNW
Cosmos 1269 Rocket 4.2 15:56:11 10° NNW 16:01:30 80° WSW 16:06:46 10° SSE
Cosmos 1606 Rocket 4.0 15:59:02 10° SSW 16:03:27 69° WNW 16:07:53 10° N
Cosmos 1726 Rocket 3.7 15:59:51 10° S 16:04:18 86° W 16:08:46 10° N
CZ-2D R/B 3.0 16:01:29 10° SSE 16:05:09 72° ENE 16:08:49 10° N
Cosmos 1812 4.0 16:07:42 10° SE 16:10:25 20° E 16:13:09 10° NE
Meteor 1-27 4.5 16:05:16 10° SSW 16:10:53 74° WNW 16:16:30 10° N
YAOGAN 11 4.5 16:09:28 10° NNE 16:13:53 49° E 16:18:18 10° S
AQUARIUS 4.4 16:09:57 10° SE 16:14:11 44° ENE 16:18:26 10° N
USA 276 3.5 16:13:38 10° SSW 16:15:26 19° SSE 16:17:13 10° ESE
Cosmos 1437 Rocket 3.2 16:12:34 10° NNW 16:16:16 63° W 16:19:58 10° S
CZ-2C R/B 2.5 16:13:08 10° SSE 16:16:41 75° ENE 16:20:19 10° N
Cosmos 2263 Rocket 2.3 16:12:10 10° S 16:17:36 57° ESE 16:23:03 10° NE
Cosmos 1844 Rocket 4.3 16:15:38 10° SE 16:18:28 14° E 16:20:21 12° ENE
Nadezhda 4 Rocket 4.3 16:15:51 10° SSE 16:21:33 42° E 16:27:15 10° NNE
CORIOLIS 4.1 16:16:18 10° SSE 16:21:36 68° ENE 16:26:57 10° N
ERS-2 2.9 16:20:21 10° S 16:23:10 44° WSW 16:26:00 10° NNW
USA 307 3.6 16:20:12 10° WNW 16:23:57 49° SSW 16:27:38 10° SE
Cosmos 2082 Rocket 4.2 16:23:36 10° N 16:25:09 11° N 16:26:42 10° NNE
Cosmos 2227 Rocket 2.8 16:20:13 10° SW 16:25:45 55° NW 16:31:21 10° NNE
Meteor 1-20 Rocket 4.3 16:20:59 10° N 16:26:26 52° ENE 16:31:57 10° SSE
Cosmos 1140 Rocket 3.4 16:21:55 10° NNW 16:27:06 65° ENE 16:32:13 10° SE
YAOGAN 1 4.0 16:29:59 16° ENE 16:30:17 16° ENE 16:32:55 10° NNE
SAR-Lupe-2 4.1 16:26:52 10° S 16:30:24 61° WSW 16:34:00 10° NNW
ADEOS 4.4 16:27:27 10° ESE 16:31:51 28° ENE 16:36:15 10° N
Cosmos 1666 2.5 16:29:58 10° NNW 16:33:31 87° WSW 16:37:03 10° S
Cosmos 1603 3.7 16:31:27 10° NNW 16:37:09 65° NE 16:42:46 10° SE
NOSS 8 (A) 4.2 16:33:57 10° SW 16:37:34 82° SE 16:39:23 22° NE
DMSP B5D2-2 4.0 16:32:43 10° NNE 16:37:57 74° ESE 16:43:10 10° S
Cosmos 1076 Rocket 4.3 16:36:26 10° NNW 16:40:43 56° W 16:44:58 10° S
Meteor 1-31 Rocket 2.6 16:39:54 10° SSE 16:43:37 88° ENE 16:47:21 10° NNW
CZ-4B R/B 4.2 16:44:59 21° ENE 16:44:59 21° ENE 16:48:04 10° NNE
SL-08 R/B 4.5 16:46:50 20° E 16:47:11 20° E 16:50:38 10° SE
SL-16 R/B 4.4 16:44:55 10° NW 16:49:43 29° WSW 16:54:30 10° SSW
ATLAS CENTAUR R/B 3.2 16:46:43 10° WNW 16:50:42 59° SW 16:58:20 10° SE
Cosmos 1602 4.0 16:48:40 10° NNW 16:52:23 66° W 16:56:05 10° S
RESURS DK-1 3.1 16:51:35 10° NNW 16:55:17 31° NE 16:56:13 28° ENE
USA 305 4.0 16:52:02 10° WNW 16:55:37 38° SW 16:59:11 10° SSE
Cosmos 1607 4.3 16:51:43 10° SW 16:58:03 65° NW 17:03:18 16° NE
CZ-4B R/B 3.3 16:54:29 10° SSE 16:59:31 74° ENE 17:04:27 10° NNW
Cosmos 1943 3.6 16:55:28 10° NW 17:01:03 67° WSW 17:06:39 10° SSE
Helios 1A 3.2 16:58:42 20° NNE 17:01:23 48° E 17:05:23 10° S
Cosmos 1782 3.2 16:58:34 10° SSE 17:02:10 37° E 17:03:03 32° ENE
Cosmos 1812 Rocket 3.5 16:58:16 10° S 17:02:32 61° E 17:06:22 13° NNE
Cosmos 1271 Rocket 4.4 16:59:58 10° N 17:01:24 18° NNE 17:01:24 18° NNE
ATLAS 2AS CENTAUR R/B 2.7 16:56:39 10° NW 17:03:37 62° NE 17:09:08 15° ESE
SMAP 4.0 17:01:48 10° S 17:06:20 51° W 17:10:55 10° NNW
NOAA 6 3.9 17:02:17 10° SSE 17:07:22 68° ENE 17:12:29 10° N
Cosmos 407 Rocket 3.6 17:07:16 10° NNW 17:12:27 78° WSW 17:17:34 10° SSE
Radarsat Rocket 3.9 17:08:05 10° SSE 17:13:54 78° ENE 17:20:07 10° NNW
Cosmos 2297 Rocket 4.1 17:10:05 10° W 17:14:27 22° NW 17:18:50 10° NNE
SOZ 4.2 17:13:17 10° WSW 17:15:34 81° SSE 17:16:20 48° E
ISS -0.5 17:17:58 10° WSW 17:19:04 11° SW 17:20:11 10° SSW
Cosmos 2251 Rocket 3.9 17:14:53 10° NNW 17:20:11 66° WSW 17:25:29 10° S
Cosmos 2219 4.4 17:15:23 10° WSW 17:20:35 38° NW 17:25:23 12° NNE
ADEOS Rocket 4.2 17:22:48 20° NNE 17:22:48 20° NNE 17:25:44 10° N
Cosmos 220 Rocket 3.8 17:19:44 10° NNW 17:24:05 77° ENE 17:27:53 13° SSE
Cosmos 1954 Rocket 3.9 17:21:49 10° NNW 17:27:05 65° ENE 17:31:27 15° SE
Cosmos 2056 Rocket 4.0 17:23:27 10° S 17:28:24 39° ESE 17:28:45 38° E
SME Rocket 4.5 17:22:33 10° SE 17:28:31 62° ENE 17:37:45 10° NNW
COSMOS 2455 4.4 17:24:43 10° SSE 17:27:03 18° SE 17:27:03 18° SE
Timation 2 Rocket 4.2 17:23:41 10° S 17:29:16 43° ESE 17:30:41 37° ENE
Cosmos 1844 4.1 17:24:10 10° S 17:29:31 41° ESE 17:30:24 39° E
COSMO-SKYMED 1 2.5 17:29:30 41° NE 17:30:51 65° ESE 17:35:09 10° S
CZ-4 R/B 4.4 17:26:59 10° SSE 17:31:04 83° WSW 17:35:11 10° NNW
Lacrosse 5 2.4 17:26:33 10° SSW 17:31:11 38° SE 17:31:42 37° ESE
Cosmos-2242 3.6 17:27:54 10° SSW 17:32:10 56° WNW 17:36:22 10° N
Lacrosse 4 Rocket 3.3 17:28:56 10° NW 17:32:46 31° WSW 17:36:31 10° S
Cosmos 1833 Rocket 3.6 17:29:12 10° NNW 17:33:48 30° NE 17:33:48 30° NE
Meteor 1-14 Rocket 4.4 17:30:56 10° N 17:36:08 43° ENE 17:36:08 43° ENE
Cosmos 1553 Rocket 3.9 17:32:10 10° N 17:38:29 61° ENE 17:44:37 10° SSE
USA 234 3.3 17:37:35 37° ENE 17:40:12 62° SE 17:46:40 10° SW
APEX 3.8 17:37:56 10° SW 17:39:58 38° WSW 17:39:58 38° WSW
Meteor 2-2 Rocket 4.4 17:36:08 10° SSW 17:41:55 80° WNW 17:47:52 10° N
PAYLOAD B 4.4 17:42:08 46° ENE 17:42:16 46° ENE 17:47:35 10° N
Cosmos 2221 3.4 17:38:29 10° S 17:41:02 34° SSE 17:41:02 34° SSE
Cosmos 2344 3.4 17:36:08 10° SSW 17:43:35 75° SE 17:47:04 34° NE
Cosmos 1190 Rocket 4.2 17:39:13 10° NNW 17:44:32 73° WSW 17:49:48 10° SSE
Cosmos 1812 4.0 17:41:52 10° SW 17:45:19 37° WNW 17:47:41 17° NNW
Cosmos 1818 3.4 17:41:58 10° SW 17:47:24 81° SE 17:48:46 52° NE
Cosmos 2026 Rocket 4.0 17:42:41 10° S 17:48:58 89° W 17:55:23 10° N
Cosmos 1371 Rocket 4.0 17:47:26 10° S 17:52:32 60° ESE 17:52:32 60° ESE
NOAA 15 4.4 17:49:52 10° SSE 17:55:10 80° ENE 18:00:29 10° NNW
Cosmos 44 Rocket 4.3 17:53:40 10° NW 17:57:40 35° N 17:57:40 35° N
CZ-4B R/B 4.1 18:01:43 35° NNE 18:01:43 35° NNE 18:05:16 10° N
Cosmos 1844 Rocket 2.5 17:55:51 10° SSW 18:01:23 77° ESE 18:02:02 67° ENE
Cosmos 2263 Rocket 3.5 17:56:46 10° WSW 18:01:49 34° NW 18:05:03 19° N
Meteor 1-26 Rocket 4.1 17:56:40 10° S 18:02:14 81° E 18:04:18 42° NNE
Cosmos 1766 Rocket 3.7 17:58:51 10° NNW 18:03:12 68° W 18:07:29 10° S
YAOGAN 1 3.3 18:07:02 45° NNW 18:07:02 45° NNW 18:10:06 10° NNW
Cosmos 1092 Rocket 4.2 18:00:27 10° SSW 18:06:33 67° WNW 18:12:42 10° N
Cosmos 1933 4.0 18:03:54 10° SSW 18:07:47 51° WNW 18:07:55 51° WNW
Cosmos 1420 Rocket 3.8 18:03:16 10° SSW 18:08:27 82° SE 18:08:27 82° SE
ADEOS 4.2 18:05:57 10° S 18:11:04 55° W 18:16:13 10° NNW
Cosmos 2227 Rocket 4.4 18:07:23 10° WNW 18:11:07 18° NNW 18:14:00 13° N
Cosmos 2082 Rocket 3.9 18:07:01 10° NNW 18:09:21 19° N 18:09:21 19° N
Cosmos 1624 Rocket 4.1 18:11:07 10° SSW 18:15:39 68° SSW 18:15:39 68° SSW
CZ-4B R/B 4.2 18:20:40 37° NW 18:20:40 37° NW 18:23:24 10° NNW
Cosmos 1417 Rocket 4.4 18:16:35 10° N 18:22:56 83° E 18:24:06 62° SSE
SL-08 R/B 3.8 18:25:44 56° W 18:25:44 56° W 18:29:51 10° SSW
RESURS DK-1 4.1 18:29:20 10° NW 18:31:56 31° WNW 18:31:56 31° WNW
ATLAS 2AS CENTAUR R/B 3.6 18:47:56 10° NW 18:54:20 42° WSW 18:56:38 32° SSW
Lacrosse 5 3.9 19:08:54 10° WSW 19:10:56 24° WSW 19:10:56 24° WSW
Cosmos 1833 Rocket 4.4 19:12:56 10° NW 19:15:30 27° NW 19:15:30 27° NW
USA 234 3.9 19:24:56 51° WNW 19:24:56 51° WNW 19:29:49 10° W
